Flag for United Kingdom Weather past 2 weeks in Edinburgh, Scotland, United Kingdom

Now
43 °F

Scattered clouds.


Feels Like: 43 °F
Forecast: 34 / 47 °F
Wind: No wind

Location: Edinburgh Airport

Current Time: Apr 25, 2015 at 10:27:13 AM

Latest Report: Apr 25, 2015 at 9:50 AM


Visibility: N/A

Pressure: 29.53 "Hg

Humidity: 81%

Dew point: 37 °F

Location of EdinburghLocation

Historic Weather in Edinburgh — Graph

°F

Edinburgh temperature yesterday

Maximum temperature yesterday: 61 °F (at 1:50 PM)
Minimum temperature yesterday: 45 °F (at 12:50 AM)
Average temperature yesterday: 51 °F

Past Weeks' High & Low Weather Summary

 TemperatureHumidityPressure
High66 °F (Apr 23, 1:20 PM)100% (Apr 16, 6:50 AM)30.60 "Hg (Apr 16, 6:50 AM)
Low30 °F (Apr 16, 4:50 AM)32% (Apr 21, 6:20 PM)29.45 "Hg (Apr 25, 12:20 AM)
Average47 °F76%30.15 "Hg
* Reported Apr 10 9:20 AM — Apr 25 9:20 AM, Edinburgh, Weather by CustomWeather, © 2015

Note: Actual official high and low records may vary slightly from our data, if they occured in-between our weather recording intervals... More about our weather records

Advertising

Edinburgh weather history for previous 24 hours

 ConditionsComfort  
Time TempWeatherWind HumidityBarometerVisibility
9:20 AM
Sat, Apr 25
41 °FBroken clouds.2 mph87%29.53 "HgN/A
8:50 AM41 °FBroken clouds.2 mph87%29.53 "HgN/A
8:20 AM41 °FLight rain. Partly sunny.8 mph87%29.50 "HgN/A
7:50 AM43 °FLight rain. More clouds than sun.8 mph93%29.50 "HgN/A
7:20 AM43 °FLight rain. Partly sunny.7 mph93%29.47 "HgN/A
6:50 AM45 °FLight rain. Mostly cloudy.7 mph87%29.47 "HgN/A
6:20 AM45 °FLight rain. Partly cloudy.8 mph93%29.47 "HgN/A
5:50 AM45 °FPassing clouds.6 mph93%29.45 "HgN/A
5:20 AM45 °FMostly cloudy.7 mph93%29.45 "HgN/A
4:20 AM46 °FOvercast.8 mph87%29.45 "HgN/A
3:50 AM48 °FPassing clouds.9 mph82%29.45 "HgN/A
3:20 AM48 °FPassing clouds.12 mph87%29.45 "HgN/A
2:50 AM48 °FLight rain. Overcast.10 mph87%29.45 "HgN/A
2:20 AM50 °FMostly cloudy.9 mph88%29.45 "HgN/A
1:50 AM50 °FPartly cloudy.8 mph94%29.45 "HgN/A
1:20 AM50 °FOvercast.8 mph94%29.45 "HgN/A
12:50 AM50 °FLight rain. Passing clouds.8 mph94%29.45 "Hg4 mi
12:20 AM50 °FPassing clouds.9 mph94%29.45 "HgN/A
11:50 PM
Fri, Apr 24
50 °FLight rain. Overcast.9 mph94%29.47 "HgN/A
11:20 PM50 °FLight rain. Partly cloudy.9 mph88%29.47 "Hg4 mi
10:20 PM50 °FLight rain. Mostly cloudy.8 mph88%29.50 "Hg5 mi
9:50 PM50 °FPassing clouds.14 mph88%29.50 "Hg5 mi
9:20 PM50 °FScattered clouds.13 mph88%29.53 "Hg5 mi
8:50 PM50 °FScattered clouds.13 mph82%29.53 "Hg5 mi
8:20 PM48 °FScattered clouds.7 mph87%29.53 "Hg5 mi
7:50 PM50 °FLight rain. Scattered clouds.12 mph82%29.56 "Hg5 mi
7:20 PM50 °FLight rain. Partly sunny.13 mph82%29.56 "Hg5 mi
6:50 PM50 °FLight rain. Overcast.14 mph82%29.59 "Hg5 mi
6:20 PM52 °FLight rain. Partly sunny.17 mph77%29.59 "Hg5 mi
5:50 PM52 °FLight rain. Partly sunny.20 mph77%29.59 "Hg5 mi
5:20 PM55 °FLight rain. Partly sunny.16 mph67%29.59 "Hg5 mi
4:50 PM57 °FBroken clouds.17 mph67%29.59 "Hg6 mi
4:20 PM61 °FScattered clouds.16 mph59%29.59 "HgN/A
3:50 PM61 °FScattered clouds.12 mph63%29.62 "HgN/A
3:20 PM61 °FScattered clouds.10 mph63%29.62 "HgN/A
2:50 PM61 °FScattered clouds.12 mph63%29.62 "Hg6 mi
2:20 PM61 °FPassing clouds.8 mph68%29.65 "HgN/A
1:50 PM61 °FPassing clouds.10 mph63%29.65 "HgN/A
1:20 PM57 °FPassing clouds.8 mph72%29.68 "HgN/A
12:50 PM57 °FPassing clouds.8 mph72%29.68 "HgN/A
12:20 PM57 °FPassing clouds.8 mph72%29.71 "HgN/A
11:50 AM55 °FPassing clouds.8 mph77%29.71 "HgN/A
11:20 AM54 °FPartly sunny.7 mph77%29.71 "HgN/A
10:50 AM52 °FPartly sunny.6 mph82%29.74 "HgN/A
10:20 AM50 °FBroken clouds.6 mph88%29.74 "HgN/A
Weather by CustomWeather, © 2015

See weather overviewHow to use our weather pages